| time (UTC) | temp F | wind direction | speed MPH | gust MPH | rain 1hr in | rain 24hr in | rain mn in | humidity % | barometer mb |
| 20260503214003 | 57 | 269 | 3.0 | 6.0 | 0.00 | 0.00 | 0.00 | 84 | 1018.3 |
| 20260503213717 | 57 | 267 | 2.0 | 6.0 | 0.00 | 0.00 | 0.00 | 83 | 1018.3 |
| 20260503213003 | 57 | 275 | 2.0 | 4.0 | 0.00 | 0.00 | 0.00 | 82 | 1018.4 |
| 20260503212503 | 57 | 283 | 1.0 | 3.0 | 0.00 | 0.00 | 0.00 | 82 | 1018.3 |
| 20260503212003 | 58 | 291 | 1.0 | 3.0 | 0.00 | 0.00 | 0.00 | 81 | 1018.3 |
| 20260503211716 | 58 | 312 | 1.0 | 3.0 | 0.00 | 0.00 | 0.00 | 80 | 1018.2 |
| 20260503211003 | 58 | 293 | 1.0 | 3.0 | 0.00 | 0.00 | 0.00 | 80 | 1018.1 |
| 20260503210503 | 58 | 281 | 1.0 | 3.0 | 0.00 | 0.00 | 0.00 | 80 | 1018.1 |
| 20260503210003 | 58 | 283 | 1.0 | 3.0 | 0.00 | 0.00 | 0.00 | 79 | 1018.2 |
| 20260503205716 | 58 | 265 | 1.0 | 2.0 | 0.00 | 0.00 | 0.00 | 79 | 1018.1 |
| 20260503205003 | 58 | 287 | 2.0 | 4.0 | 0.00 | 0.00 | 0.00 | 79 | 1018.1 |
| 20260503204503 | 58 | 287 | 2.0 | 4.0 | 0.00 | 0.00 | 0.00 | 78 | 1018.1 |
| 20260503204003 | 58 | 254 | 1.0 | 4.0 | 0.00 | 0.00 | 0.00 | 77 | 1018.0 |
| 20260503203503 | 58 | 266 | 2.0 | 6.0 | 0.00 | 0.00 | 0.00 | 77 | 1017.7 |
| 20260503203003 | 59 | 271 | 3.0 | 6.0 | 0.00 | 0.00 | 0.00 | 77 | 1017.8 |
| 20260503202503 | 59 | 264 | 3.0 | 7.0 | 0.00 | 0.00 | 0.00 | 76 | 1017.8 |
| 20260503202003 | 59 | 272 | 4.0 | 8.0 | 0.00 | 0.00 | 0.00 | 76 | 1017.7 |
| 20260503201503 | 59 | 280 | 5.0 | 8.0 | 0.00 | 0.00 | 0.00 | 76 | 1017.5 |
| 20260503201003 | 59 | 281 | 4.0 | 8.0 | 0.00 | 0.00 | 0.00 | 75 | 1017.4 |
| 20260503200503 | 59 | 288 | 4.0 | 9.0 | 0.00 | 0.00 | 0.00 | 74 | 1017.5 |
| 20260503200217 | 60 | 289 | 5.0 | 9.0 | 0.00 | 0.00 | 0.00 | 73 | 1017.5 |
| 20260503195503 | 60 | 289 | 5.0 | 9.0 | 0.00 | 0.00 | 0.00 | 72 | 1017.5 |
| 20260503195004 | 60 | 270 | 4.0 | 9.0 | 0.00 | 0.00 | 0.00 | 71 | 1017.4 |
| 20260503194503 | 60 | 265 | 4.0 | 9.0 | 0.00 | 0.00 | 0.00 | 71 | 1017.2 |
| 20260503194003 | 60 | 264 | 4.0 | 8.0 | 0.00 | 0.00 | 0.00 | 70 | 1017.1 |
| 20260503193503 | 60 | 263 | 4.0 | 8.0 | 0.00 | 0.00 | 0.00 | 70 | 1017.1 |
| 20260503193003 | 60 | 265 | 4.0 | 8.0 | 0.00 | 0.00 | 0.00 | 70 | 1017.1 |
| 20260503192503 | 61 | 269 | 4.0 | 9.0 | 0.00 | 0.00 | 0.00 | 70 | 1017.0 |
| 20260503192003 | 61 | 268 | 4.0 | 9.0 | 0.00 | 0.00 | 0.00 | 69 | 1017.0 |
| 20260503191503 | 61 | 267 | 4.0 | 8.0 | 0.00 | 0.00 | 0.00 | 69 | 1016.9 |
| 20260503191003 | 61 | 269 | 5.0 | 9.0 | 0.00 | 0.00 | 0.00 | 69 | 1017.0 |
| 20260503190503 | 61 | 268 | 5.0 | 9.0 | 0.00 | 0.00 | 0.00 | 68 | 1016.9 |
| 20260503190003 | 62 | 269 | 5.0 | 11.0 | 0.00 | 0.00 | 0.00 | 67 | 1016.9 |
| 20260503185718 | 62 | 272 | 5.0 | 11.0 | 0.00 | 0.00 | 0.00 | 66 | 1016.9 |
| 20260503185217 | 62 | 277 | 6.0 | 11.0 | 0.00 | 0.00 | 0.00 | 65 | 1016.9 |
| 20260503184503 | 63 | 260 | 6.0 | 11.0 | 0.00 | 0.00 | 0.00 | 64 | 1016.7 |
| 20260503184216 | 64 | 257 | 5.0 | 14.0 | 0.00 | 0.00 | 0.00 | 63 | 1016.6 |
| 20260503183503 | 64 | 271 | 6.0 | 14.0 | 0.00 | 0.00 | 0.00 | 62 | 1016.7 |
| 20260503183003 | 64 | 274 | 6.0 | 13.0 | 0.00 | 0.00 | 0.00 | 62 | 1016.6 |
| 20260503182718 | 64 | 278 | 6.0 | 13.0 | 0.00 | 0.00 | 0.00 | 61 | 1016.6 |
| 20260503182216 | 64 | 274 | 7.0 | 13.0 | 0.00 | 0.00 | 0.00 | 61 | 1016.5 |
| 20260503181504 | 65 | 268 | 7.0 | 15.0 | 0.00 | 0.00 | 0.00 | 60 | 1016.5 |
| 20260503181003 | 65 | 266 | 8.0 | 15.0 | 0.00 | 0.00 | 0.00 | 59 | 1016.6 |
| 20260503180503 | 65 | 262 | 7.0 | 15.0 | 0.00 | 0.00 | 0.00 | 59 | 1016.5 |
| 20260503180003 | 66 | 264 | 6.0 | 10.0 | 0.00 | 0.00 | 0.00 | 59 | 1016.5 |
| 20260503175503 | 66 | 268 | 7.0 | 11.0 | 0.00 | 0.00 | 0.00 | 59 | 1016.5 |
| 20260503175003 | 66 | 272 | 8.0 | 14.0 | 0.00 | 0.00 | 0.00 | 60 | 1016.5 |
| 20260503174503 | 66 | 277 | 7.0 | 14.0 | 0.00 | 0.00 | 0.00 | 59 | 1016.3 |
| 20260503174003 | 67 | 268 | 7.0 | 13.0 | 0.00 | 0.00 | 0.00 | 58 | 1016.3 |
| 20260503173503 | 66 | 270 | 8.0 | 14.0 | 0.00 | 0.00 | 0.00 | 58 | 1016.4 |
| 20260503173003 | 66 | 276 | 7.0 | 14.0 | 0.00 | 0.00 | 0.00 | 58 | 1016.5 |
| 20260503172504 | 67 | 273 | 7.0 | 13.0 | 0.00 | 0.00 | 0.00 | 57 | 1016.5 |
| 20260503172003 | 67 | 283 | 8.0 | 14.0 | 0.00 | 0.00 | 0.00 | 55 | 1016.5 |
| 20260503171503 | 67 | 291 | 9.0 | 16.0 | 0.00 | 0.00 | 0.00 | 56 | 1016.4 |
| 20260503171003 | 67 | 285 | 9.0 | 16.0 | 0.00 | 0.00 | 0.00 | 56 | 1016.5 |
| 20260503170503 | 67 | 281 | 9.0 | 15.0 | 0.00 | 0.00 | 0.00 | 56 | 1016.5 |
| 20260503151003 | 70 | 289 | 7.0 | 15.0 | 0.00 | 0.00 | 0.00 | 52 | 1016.7 |
| 20260503150503 | 70 | 290 | 8.0 | 19.0 | 0.00 | 0.00 | 0.00 | 51 | 1016.6 |
| 20260503131003 | 68 | 278 | 7.0 | 14.0 | 0.00 | 0.00 | 0.00 | 57 | 1017.4 |
| 20260503130503 | 67 | 286 | 7.0 | 14.0 | 0.00 | 0.00 | 0.00 | 59 | 1017.5 |
| 20260503110503 | 67 | 255 | 4.0 | 10.0 | 0.00 | 0.00 | 0.00 | 57 | 1018.2 |
| 20260503090503 | 64 | 181 | 1.0 | 2.0 | 0.00 | 0.00 | 0.00 | 73 | 1018.4 |
| 20260503090217 | 64 | 247 | 0.0 | 2.0 | 0.00 | 0.00 | 0.00 | 74 | 1018.3 |
| 20260503081503 | 61 | 277 | 2.0 | 4.0 | 0.00 | 0.00 | 0.00 | 79 | 1018.4 |
| 20260503081003 | 61 | 274 | 3.0 | 6.0 | 0.00 | 0.00 | 0.00 | 80 | 1018.6 |
| 20260503080718 | 60 | 265 | 3.0 | 6.0 | 0.00 | 0.00 | 0.00 | 81 | 1018.7 |
| 20260503080217 | 61 | 247 | 3.0 | 6.0 | 0.00 | 0.00 | 0.00 | 81 | 1018.5 |
| 20260503072503 | 60 | 212 | 0.0 | 2.0 | 0.00 | 0.00 | 0.00 | 82 | 1018.2 |
| 20260503072003 | 59 | 254 | 1.0 | 3.0 | 0.00 | 0.00 | 0.00 | 84 | 1018.3 |
| 20260503071503 | 59 | 238 | 2.0 | 3.0 | 0.00 | 0.00 | 0.00 | 85 | 1018.4 |
| 20260503071003 | 58 | 224 | 1.0 | 3.0 | 0.00 | 0.00 | 0.00 | 86 | 1018.4 |
| 20260503070717 | 58 | 231 | 1.0 | 3.0 | 0.00 | 0.00 | 0.00 | 86 | 1018.4 |
| 20260503055003 | 56 | 180 | 0.0 | 1.0 | 0.00 | 0.00 | 0.00 | 95 | 1018.0 |
| 20260503054503 | 56 | 174 | 0.0 | 1.0 | 0.00 | 0.00 | 0.00 | 95 | 1018.0 |
| 20260503054003 | 57 | 233 | 0.0 | 1.0 | 0.00 | 0.00 | 0.00 | 95 | 1017.9 |
| 20260503053503 | 56 | 247 | 0.0 | 2.0 | 0.00 | 0.00 | 0.00 | 96 | 1017.9 |
| 20260503053218 | 56 | 256 | 0.0 | 2.0 | 0.00 | 0.00 | 0.00 | 95 | 1017.7 |
| 20260503052717 | 57 | 262 | 1.0 | 2.0 | 0.00 | 0.00 | 0.00 | 95 | 1017.8 |
| 20260503052003 | 56 | 255 | 1.0 | 2.0 | 0.00 | 0.00 | 0.00 | 95 | 1018.0 |
| 20260503051503 | 57 | 273 | 2.0 | 3.0 | 0.00 | 0.00 | 0.00 | 95 | 1018.0 |
| 20260503051217 | 57 | 284 | 2.0 | 6.0 | 0.00 | 0.00 | 0.00 | 95 | 1018.0 |
| 20260503050717 | 56 | 283 | 3.0 | 6.0 | 0.00 | 0.00 | 0.00 | 95 | 1017.9 |
| 20260503050003 | 57 | 282 | 3.0 | 6.0 | 0.00 | 0.00 | 0.00 | 95 | 1018.0 |
| 20260503045503 | 57 | 282 | 3.0 | 6.0 | 0.00 | 0.00 | 0.00 | 95 | 1018.0 |
| 20260503045003 | 57 | 278 | 3.0 | 6.0 | 0.00 | 0.00 | 0.00 | 95 | 1018.1 |
| 20260503044716 | 57 | 277 | 3.0 | 6.0 | 0.00 | 0.00 | 0.00 | 95 | 1018.0 |
| 20260503044003 | 57 | 280 | 3.0 | 6.0 | 0.00 | 0.00 | 0.00 | 95 | 1018.2 |
| 20260503043503 | 57 | 277 | 3.0 | 6.0 | 0.00 | 0.00 | 0.00 | 95 | 1018.0 |
| 20260503043003 | 57 | 285 | 3.0 | 4.0 | 0.00 | 0.00 | 0.00 | 95 | 1018.0 |
| 20260503042503 | 57 | 289 | 3.0 | 4.0 | 0.00 | 0.00 | 0.00 | 95 | 1018.0 |
| 20260503042003 | 57 | 281 | 2.0 | 4.0 | 0.00 | 0.00 | 0.00 | 95 | 1018.0 |
| 20260503041503 | 57 | 269 | 1.0 | 3.0 | 0.00 | 0.00 | 0.00 | 95 | 1018.1 |
| 20260503041003 | 57 | 274 | 1.0 | 4.0 | 0.00 | 0.00 | 0.00 | 95 | 1018.0 |
| 20260503040503 | 57 | 278 | 2.0 | 4.0 | 0.00 | 0.00 | 0.00 | 95 | 1018.0 |
| 20260503040003 | 57 | 276 | 1.0 | 3.0 | 0.00 | 0.00 | 0.00 | 95 | 1018.1 |
| 20260503035503 | 57 | 266 | 1.0 | 3.0 | 0.00 | 0.00 | 0.00 | 95 | 1018.0 |
| 20260503035003 | 57 | 265 | 2.0 | 3.0 | 0.00 | 0.00 | 0.00 | 95 | 1018.0 |
| 20260503034503 | 57 | 279 | 2.0 | 4.0 | 0.00 | 0.00 | 0.00 | 95 | 1017.8 |
| 20260503034003 | 57 | 289 | 2.0 | 4.0 | 0.00 | 0.00 | 0.00 | 94 | 1018.0 |
| 20260503033503 | 57 | 287 | 2.0 | 4.0 | 0.00 | 0.00 | 0.00 | 94 | 1018.0 |
| 20260503033003 | 57 | 273 | 2.0 | 3.0 | 0.00 | 0.00 | 0.00 | 94 | 1018.1 |
| 20260503032503 | 57 | 271 | 2.0 | 3.0 | 0.00 | 0.00 | 0.00 | 94 | 1017.9 |
| 20260503032003 | 58 | 270 | 1.0 | 3.0 | 0.00 | 0.00 | 0.00 | 94 | 1017.7 |
| 20260503031503 | 58 | 258 | 1.0 | 3.0 | 0.00 | 0.00 | 0.00 | 94 | 1018.0 |
| 20260503031003 | 58 | 252 | 1.0 | 3.0 | 0.00 | 0.00 | 0.00 | 94 | 1018.0 |
| 20260503030503 | 58 | 250 | 0.0 | 2.0 | 0.00 | 0.00 | 0.00 | 94 | 1018.1 |
| 20260503030004 | 58 | 251 | 0.0 | 2.0 | 0.00 | 0.00 | 0.00 | 94 | 1018.0 |
| 20260503025503 | 58 | 249 | 0.0 | 2.0 | 0.00 | 0.00 | 0.00 | 94 | 1018.3 |
| 20260503025003 | 58 | 201 | 1.0 | 2.0 | 0.00 | 0.00 | 0.00 | 94 | 1018.0 |
| 20260503024503 | 58 | 193 | 0.0 | 2.0 | 0.00 | 0.00 | 0.00 | 94 | 1018.1 |
| 20260503024003 | 58 | 185 | 0.0 | 2.0 | 0.00 | 0.00 | 0.00 | 94 | 1018.3 |
| 20260503023503 | 58 | 360 | 0.0 | 2.0 | 0.00 | 0.00 | 0.00 | 94 | 1018.3 |
| 20260503023003 | 58 | 282 | 0.0 | 2.0 | 0.00 | 0.00 | 0.00 | 94 | 1018.3 |
| 20260503022503 | 58 | 259 | 0.0 | 2.0 | 0.00 | 0.00 | 0.00 | 94 | 1018.4 |
| 20260503022003 | 58 | 258 | 0.0 | 2.0 | 0.00 | 0.00 | 0.00 | 94 | 1018.4 |
| 20260503021503 | 58 | 263 | 0.0 | 2.0 | 0.00 | 0.00 | 0.00 | 94 | 1018.5 |
| 20260503021003 | 58 | 235 | 0.0 | 1.0 | 0.00 | 0.00 | 0.00 | 94 | 1018.4 |
| 20260503020503 | 58 | 242 | 0.0 | 1.0 | 0.00 | 0.00 | 0.00 | 94 | 1018.3 |
| 20260503020003 | 58 | 249 | 1.0 | 3.0 | 0.00 | 0.00 | 0.00 | 94 | 1018.3 |
| 20260503015503 | 58 | 252 | 1.0 | 3.0 | 0.00 | 0.00 | 0.00 | 94 | 1018.5 |
| 20260503015003 | 58 | 272 | 1.0 | 3.0 | 0.00 | 0.00 | 0.00 | 94 | 1018.5 |
| 20260503014503 | 58 | 270 | 1.0 | 3.0 | 0.00 | 0.00 | 0.00 | 94 | 1018.5 |
| 20260503014003 | 58 | 272 | 2.0 | 3.0 | 0.00 | 0.00 | 0.00 | 94 | 1018.8 |
| 20260503013503 | 58 | 276 | 2.0 | 3.0 | 0.00 | 0.00 | 0.00 | 93 | 1018.6 |
| 20260503013003 | 58 | 282 | 2.0 | 4.0 | 0.00 | 0.00 | 0.00 | 93 | 1018.7 |
| 20260503012503 | 58 | 289 | 2.0 | 4.0 | 0.00 | 0.00 | 0.00 | 93 | 1018.7 |
| 20260503012003 | 58 | 282 | 2.0 | 3.0 | 0.00 | 0.00 | 0.00 | 93 | 1018.5 |
| 20260503011503 | 59 | 279 | 2.0 | 3.0 | 0.00 | 0.00 | 0.00 | 92 | 1018.8 |
| 20260503011003 | 59 | 288 | 2.0 | 4.0 | 0.00 | 0.00 | 0.00 | 92 | 1018.7 |
| 20260503010503 | 59 | 289 | 3.0 | 4.0 | 0.00 | 0.00 | 0.00 | 92 | 1018.6 |
| 20260503010004 | 59 | 276 | 2.0 | 4.0 | 0.00 | 0.00 | 0.00 | 91 | 1018.9 |
| 20260503005503 | 59 | 264 | 2.0 | 3.0 | 0.00 | 0.00 | 0.00 | 90 | 1019.0 |
| 20260503005218 | 59 | 268 | 1.0 | 2.0 | 0.00 | 0.00 | 0.00 | 90 | 1018.9 |
| 20260503004717 | 59 | 275 | 1.0 | 3.0 | 0.00 | 0.00 | 0.00 | 90 | 1019.1 |
| 20260503004003 | 59 | 258 | 1.0 | 2.0 | 0.00 | 0.00 | 0.00 | 90 | 1018.9 |
| 20260503003503 | 59 | 255 | 1.0 | 2.0 | 0.00 | 0.00 | 0.00 | 91 | 1019.1 |
| 20260503003003 | 60 | 262 | 1.0 | 2.0 | 0.00 | 0.00 | 0.00 | 91 | 1019.2 |
| 20260503002503 | 60 | 258 | 1.0 | 2.0 | 0.00 | 0.00 | 0.00 | 91 | 1019.3 |
| 20260503002003 | 60 | 244 | 0.0 | 2.0 | 0.00 | 0.00 | 0.00 | 91 | 1019.3 |
| 20260503001503 | 60 | 253 | 0.0 | 1.0 | 0.00 | 0.00 | 0.00 | 91 | 1019.5 |
| 20260503001003 | 60 | 230 | 0.0 | 1.0 | 0.00 | 0.00 | 0.00 | 91 | 1019.5 |
| 20260503000503 | 60 | 239 | 0.0 | 1.0 | 0.00 | 0.00 | 0.00 | 91 | 1019.5 |
| 20260503000003 | 60 | 254 | 1.0 | 2.0 | 0.00 | 0.00 | 0.00 | 91 | 1019.4 |
| 20260502235503 | 60 | 258 | 1.0 | 2.0 | 0.00 | 0.00 | 0.00 | 91 | 1019.4 |
| 20260502235003 | 60 | 271 | 2.0 | 3.0 | 0.00 | 0.00 | 0.00 | 91 | 1019.4 |
| 20260502234503 | 60 | 268 | 2.0 | 3.0 | 0.00 | 0.00 | 0.00 | 91 | 1019.6 |
| 20260502234218 | 60 | 272 | 3.0 | 4.0 | 0.00 | 0.00 | 0.00 | 91 | 1019.6 |
| 20260502233503 | 60 | 274 | 2.0 | 4.0 | 0.00 | 0.00 | 0.00 | 91 | 1019.4 |
| 20260502233003 | 60 | 283 | 3.0 | 4.0 | 0.00 | 0.00 | 0.00 | 91 | 1019.5 |
| 20260502232503 | 60 | 296 | 4.0 | 6.0 | 0.00 | 0.00 | 0.00 | 91 | 1019.6 |
| 20260502232003 | 60 | 297 | 3.0 | 6.0 | 0.00 | 0.00 | 0.00 | 91 | 1019.6 |
| 20260502231503 | 60 | 280 | 3.0 | 6.0 | 0.00 | 0.00 | 0.00 | 90 | 1019.5 |
| 20260502231003 | 60 | 268 | 2.0 | 4.0 | 0.00 | 0.00 | 0.00 | 90 | 1019.6 |
| 20260502230003 | 60 | 279 | 3.0 | 4.0 | 0.00 | 0.00 | 0.00 | 90 | 1019.5 |
| 20260502225503 | 60 | 278 | 2.0 | 4.0 | 0.00 | 0.00 | 0.00 | 90 | 1019.4 |
| 20260502225003 | 61 | 281 | 2.0 | 4.0 | 0.00 | 0.00 | 0.00 | 89 | 1019.4 |
| 20260502224503 | 61 | 270 | 2.0 | 4.0 | 0.00 | 0.00 | 0.00 | 89 | 1019.4 |
| 20260502224003 | 61 | 264 | 2.0 | 3.0 | 0.00 | 0.00 | 0.00 | 89 | 1019.6 |
| 20260502223503 | 61 | 277 | 1.0 | 3.0 | 0.00 | 0.00 | 0.00 | 88 | 1019.4 |
| 20260502223217 | 61 | 288 | 1.0 | 3.0 | 0.00 | 0.00 | 0.00 | 88 | 1019.5 |
| 20260502222718 | 61 | 293 | 2.0 | 3.0 | 0.00 | 0.00 | 0.00 | 88 | 1019.5 |
| 20260502222003 | 61 | 260 | 1.0 | 2.0 | 0.00 | 0.00 | 0.00 | 88 | 1019.3 |
| 20260502221503 | 61 | 268 | 1.0 | 2.0 | 0.00 | 0.00 | 0.00 | 88 | 1019.5 |
| 20260502221003 | 61 | 271 | 1.0 | 2.0 | 0.00 | 0.00 | 0.00 | 88 | 1019.7 |
| 20260502220503 | 61 | 260 | 1.0 | 2.0 | 0.00 | 0.00 | 0.00 | 88 | 1019.5 |
| 20260502220217 | 61 | 255 | 1.0 | 2.0 | 0.00 | 0.00 | 0.00 | 88 | 1019.6 |
| 20260502215718 | 61 | 252 | 1.0 | 2.0 | 0.00 | 0.00 | 0.00 | 88 | 1019.4 |
| 20260502215003 | 61 | 231 | 1.0 | 3.0 | 0.00 | 0.00 | 0.00 | 88 | 1019.6 |
| 20260502214503 | 61 | 236 | 1.0 | 3.0 | 0.00 | 0.00 | 0.00 | 88 | 1019.6 |
| 20260502214217 | 61 | 237 | 1.0 | 3.0 | 0.00 | 0.00 | 0.00 | 88 | 1019.7 |